Ankeny, IA

2:30 AM CDT on May 30, 2017 (GMT -0500)
Ankeny Regional

Weather History for KIKV - January, 2013

Change the Weather History Date:

Thursday, January 3, 2013

  Actual Average (KDSM) Record (KDSM)
Temperature  
Mean Temperature 16 °F -  
Max Temperature 28 °F 28 °F 60 °F (1880)
Min Temperature 5 °F 12 °F -21 °F (1879)
Degree Days  
Heating Degree Days 48    
Moisture  
Dew Point 11 °F    
Average Humidity 76    
Maximum Humidity 86    
Minimum Humidity 62    
Precipitation  
Precipitation 0.00 in - - ()
Sea Level Pressure  
Sea Level Pressure 30.29 in    
Wind  
Wind Speed 8 mph (WNW)    
Max Wind Speed 17 mph    
Max Gust Speed 22 mph    
Visibility 10 miles    
Events Snow    
Averages and records for this station are not official NWS values.
T = Trace of Precipitation, MM = Missing Value Source: NWS Daily Summary

Daily Weather History Graph

Daily Weather History Graph

Search for Another Location

Airport or City:

Trip Planner

Search our weather history database for the weather conditions in past years. The results will help you decide how hot, cold, wet, or windy it might be!

Date:

Astronomy

Jan. 03, 2013 Rise Set
Actual Time 7:41 AM CST 4:56 PM CST
Civil Twilight 7:10 AM CST 5:27 PM CST
Nautical Twilight 6:35 AM CST 6:02 PM CST
Astronomical Twilight 6:01 AM CST 6:36 PM CST
Moon 11:38 PM CST (1/3) 10:47 AM CST (1/3)
Length of Visible Light 10h 17m
Length of Day
9h 15m
Waning Gibbous, 65% of the Moon is Illuminated
Jan 3
Waning Gibbous
Jan 4
Last Quarter
Jan 11
New
Jan 18
First Quarter
Jan 26
Full

Hourly Weather History & Observations

Time (CST) Temp. Windchill Dew Point Humidity Pressure Visibility Wind Dir Wind Speed Gust Speed Precip Events Conditions
12:15 AM 28.4 °F 20.4 °F 21.2 °F 74% 30.16 in 10.0 mi NW 8.1 mph - N/A   Overcast
12:35 AM 28.4 °F 23.3 °F 21.2 °F 74% 30.16 in 10.0 mi WNW 4.6 mph - N/A Snow Light Snow
12:55 AM 28.4 °F 23.3 °F 21.2 °F 74% 30.16 in 10.0 mi West 4.6 mph - N/A Snow Light Snow
1:15 AM 28.4 °F 24.6 °F 21.2 °F 74% 30.16 in 10.0 mi West 3.5 mph - N/A   Overcast
1:35 AM 28.4 °F 24.6 °F 21.2 °F 74% 30.16 in 10.0 mi West 3.5 mph - N/A   Overcast
1:55 AM 28.4 °F 23.3 °F 23.0 °F 80% 30.16 in 10.0 mi WSW 4.6 mph - N/A   Overcast
2:15 AM 28.4 °F 22.2 °F 24.8 °F 86% 30.17 in 10.0 mi West 5.8 mph - N/A   Overcast
2:35 AM 28.4 °F 21.2 °F 24.8 °F 86% 30.17 in 10.0 mi West 6.9 mph - N/A   Overcast
2:55 AM 28.4 °F 22.2 °F 24.8 °F 86% 30.18 in 10.0 mi WNW 5.8 mph - N/A   Overcast
3:15 AM 28.4 °F 21.2 °F 24.8 °F 86% 30.18 in 10.0 mi West 6.9 mph - N/A   Overcast
3:35 AM 28.4 °F 19.7 °F 24.8 °F 86% 30.18 in 10.0 mi West 9.2 mph - N/A   Overcast
3:55 AM 28.4 °F 20.4 °F 24.8 °F 86% 30.18 in 10.0 mi West 8.1 mph - N/A   Overcast
4:15 AM 28.4 °F 19.7 °F 24.8 °F 86% 30.18 in 10.0 mi WNW 9.2 mph - N/A   Overcast
4:35 AM 28.4 °F 19.7 °F 24.8 °F 86% 30.19 in 10.0 mi West 9.2 mph - N/A   Overcast
4:55 AM 28.4 °F 19.7 °F 24.8 °F 86% 30.19 in 10.0 mi West 9.2 mph - N/A   Overcast
5:15 AM 28.4 °F 19.7 °F 24.8 °F 86% 30.20 in 10.0 mi WNW 9.2 mph - N/A   Overcast
5:35 AM 28.4 °F 20.4 °F 24.8 °F 86% 30.20 in 10.0 mi WNW 8.1 mph - N/A   Overcast
5:55 AM 26.6 °F 16.2 °F 21.2 °F 80% 30.21 in 10.0 mi North 11.5 mph - N/A   Overcast
6:15 AM 24.8 °F 12.4 °F 19.4 °F 80% 30.23 in 10.0 mi North 15.0 mph 19.6 mph N/A   Overcast
6:35 AM 23.0 °F 12.4 °F 17.6 °F 80% 30.24 in 10.0 mi North 10.4 mph 17.3 mph N/A   Overcast
6:55 AM 21.2 °F 9.5 °F 17.6 °F 86% 30.25 in 10.0 mi NNW 11.5 mph - N/A   Overcast
7:15 AM 21.2 °F 10.9 °F 15.8 °F 80% 30.26 in 10.0 mi NNW 9.2 mph - N/A   Overcast
7:35 AM 21.2 °F 10.1 °F 15.8 °F 80% 30.27 in 10.0 mi NNW 10.4 mph - N/A   Overcast
7:55 AM 21.2 °F 6.8 °F 15.8 °F 80% 30.28 in 10.0 mi NW 17.3 mph 21.9 mph N/A   Overcast
8:15 AM 21.2 °F 9.5 °F 14.0 °F 74% 30.29 in 10.0 mi NW 11.5 mph - N/A   Overcast
8:35 AM 19.4 °F 6.6 °F 12.2 °F 74% 30.30 in 10.0 mi NNW 12.7 mph 18.4 mph N/A   Overcast
8:55 AM 17.6 °F 3.7 °F 8.6 °F 68% 30.31 in 10.0 mi NNW 13.8 mph - N/A   Mostly Cloudy
9:15 AM 17.6 °F 5.0 °F 8.6 °F 68% 30.32 in 10.0 mi NW 11.5 mph - N/A   Scattered Clouds
9:35 AM 17.6 °F 5.7 °F 8.6 °F 68% 30.32 in 10.0 mi NW 10.4 mph - N/A   Clear
9:55 AM 15.8 °F 2.1 °F 8.6 °F 73% 30.33 in 10.0 mi WNW 12.7 mph - N/A   Clear
10:15 AM 15.8 °F 1.4 °F 6.8 °F 68% 30.34 in 10.0 mi WNW 13.8 mph - N/A   Clear
10:35 AM 15.8 °F 4.2 °F 6.8 °F 68% 30.35 in 10.0 mi WNW 9.2 mph - N/A   Clear
10:55 AM 15.8 °F 1.4 °F 6.8 °F 68% 30.35 in 10.0 mi WNW 13.8 mph - N/A   Clear
11:15 AM 15.8 °F 2.7 °F 5.0 °F 62% 30.35 in 10.0 mi WNW 11.5 mph - N/A   Clear
11:35 AM 15.8 °F 0.9 °F 5.0 °F 62% 30.35 in 10.0 mi West 15.0 mph - N/A   Clear
11:55 AM 15.8 °F 1.4 °F 5.0 °F 62% 30.35 in 10.0 mi West 13.8 mph 18.4 mph N/A   Clear
12:15 PM 15.8 °F 1.4 °F 5.0 °F 62% 30.34 in 10.0 mi West 13.8 mph - N/A   Clear
12:35 PM 15.8 °F 0.9 °F 5.0 °F 62% 30.34 in 10.0 mi WNW 15.0 mph 18.4 mph N/A   Clear
12:55 PM 15.8 °F 2.1 °F 6.8 °F 68% 30.33 in 10.0 mi WNW 12.7 mph - N/A   Clear
1:15 PM 15.8 °F 2.1 °F 5.0 °F 62% 30.33 in 10.0 mi WNW 12.7 mph 17.3 mph N/A   Clear
1:35 PM 15.8 °F 1.4 °F 6.8 °F 68% 30.33 in 10.0 mi West 13.8 mph - N/A   Clear
1:55 PM 15.8 °F 2.1 °F 6.8 °F 68% 30.33 in 10.0 mi West 12.7 mph - N/A   Clear
2:15 PM 15.8 °F 2.7 °F 6.8 °F 68% 30.33 in 10.0 mi West 11.5 mph - N/A   Clear
2:35 PM 15.8 °F 2.7 °F 6.8 °F 68% 30.33 in 10.0 mi West 11.5 mph - N/A   Clear
2:55 PM 15.8 °F 2.7 °F 6.8 °F 68% 30.34 in 10.0 mi West 11.5 mph - N/A   Clear
3:15 PM 15.8 °F 0.9 °F 6.8 °F 68% 30.35 in 10.0 mi WNW 15.0 mph 18.4 mph N/A   Clear
3:55 PM 15.8 °F 4.2 °F 6.8 °F 68% 30.35 in 10.0 mi WNW 9.2 mph - N/A   Clear
4:15 PM 15.8 °F 4.2 °F 6.8 °F 68% 30.36 in 10.0 mi WNW 9.2 mph - N/A   Clear
4:35 PM 15.8 °F 5.1 °F 6.8 °F 68% 30.36 in 10.0 mi WNW 8.1 mph - N/A   Clear
4:55 PM 15.8 °F 8.6 °F 6.8 °F 68% 30.37 in 10.0 mi WNW 4.6 mph - N/A   Clear
5:15 PM 14.0 °F 3.9 °F 6.8 °F 73% 30.37 in 10.0 mi West 6.9 mph - N/A   Clear
5:35 PM 14.0 °F 3.9 °F 6.8 °F 73% 30.37 in 10.0 mi West 6.9 mph - N/A   Clear
5:55 PM 12.2 °F 4.3 °F 6.8 °F 79% 30.37 in 10.0 mi West 4.6 mph - N/A   Clear
6:15 PM 12.2 °F 2.9 °F 6.8 °F 79% 30.37 in 10.0 mi WNW 5.8 mph - N/A   Clear
6:35 PM 12.2 °F 2.9 °F 6.8 °F 79% 30.37 in 10.0 mi WNW 5.8 mph - N/A   Clear
6:55 PM 12.2 °F 4.3 °F 6.8 °F 79% 30.37 in 10.0 mi West 4.6 mph - N/A   Clear
7:15 PM 12.2 °F 4.3 °F 5.0 °F 73% 30.37 in 10.0 mi West 4.6 mph - N/A   Clear
7:35 PM 10.4 °F 2.2 °F 5.0 °F 79% 30.36 in 10.0 mi West 4.6 mph - N/A   Scattered Clouds
7:55 PM 10.4 °F 4.0 °F 5.0 °F 79% 30.36 in 10.0 mi West 3.5 mph - N/A   Scattered Clouds
8:15 PM 10.4 °F 4.0 °F 6.8 °F 85% 30.35 in 10.0 mi WSW 3.5 mph - N/A   Clear
8:35 PM 8.6 °F 2.0 °F 3.2 °F 79% 30.34 in 10.0 mi SW 3.5 mph - N/A   Clear
8:55 PM 8.6 °F - 3.2 °F 79% 30.34 in 10.0 mi Calm Calm - N/A   Clear
9:15 PM 6.8 °F - 3.2 °F 85% 30.34 in 10.0 mi Calm Calm - N/A   Clear
9:35 PM 6.8 °F - 3.2 °F 85% 30.34 in 10.0 mi Calm Calm - N/A   Clear
9:55 PM 8.6 °F - 3.2 °F 79% 30.33 in 10.0 mi Calm Calm - N/A   Clear
10:15 PM 6.8 °F - 3.2 °F 85% 30.33 in 10.0 mi Calm Calm - N/A   Clear
10:35 PM 5.0 °F - -0.4 °F 78% 30.32 in 10.0 mi Calm Calm - N/A   Clear
10:55 PM 6.8 °F -0.1 °F 1.4 °F 79% 30.31 in 10.0 mi South 3.5 mph - N/A   Clear
11:15 PM 8.6 °F 2.0 °F 3.2 °F 79% 30.31 in 10.0 mi SSW 3.5 mph - N/A   Clear
11:35 PM 6.8 °F -0.1 °F 3.2 °F 85% 30.31 in 10.0 mi SSE 3.5 mph - N/A   Clear
11:55 PM 8.6 °F 2.0 °F 3.2 °F 79% 30.30 in 10.0 mi SSW 3.5 mph - N/A   Clear